[Iaude] MPEC C194: 2024 CR6 [a=1.66,e=0.70,i=3.8,H=27.9]

mpec at cfa.harvard.edu mpec at cfa.harvard.edu
Thu Feb 15 17:38:39 EST 2024


M.P.E.C. 2024-C194                            Issued 2024 February 15, 22:37 UT

     The Minor Planet Electronic Circulars contain information on unusual
         minor planets, routine data on comets and natural satellites,
         and occasional editorial announcements.  They are published
    on behalf of Division F of the International Astronomical Union by the
          Minor Planet Center, Smithsonian Astrophysical Observatory,
                          Cambridge, MA 02138, U.S.A.
			  
             Prepared using the Tamkin Foundation Computer Network

                              MPC at CFA.HARVARD.EDU
            URL https://www.minorplanetcenter.net/    ISSN 1523-6714

                                    2024 CR6                                    


Observations:
     K24C06R*1C2024 02 15.31336909 42 59.947+19 36 50.69         18.73GVEC194703
     K24C06R 1C2024 02 15.31574909 42 56.459+19 35 48.66         19.05GVEC194703
     K24C06R 1C2024 02 15.31806809 42 53.021+19 34 49.98         19.37GVEC194703
     K24C06R 1C2024 02 15.32039109 42 49.464+19 33 49.79         18.89GVEC194703
     K24C06R KC2024 02 15.34626609 42 11.534+19 22 54.77         19.18GVEC194I52
     K24C06R KC2024 02 15.34678009 42 10.796+19 22 42.13         19.35GVEC194I52
     K24C06R KC2024 02 15.34730109 42 10.058+19 22 29.03         19.38GVEC194I52
     K24C06R KC2024 02 15.34782209 42 09.299+19 22 16.25         19.26GVEC194I52
     K24C06R KC2024 02 15.47158309 39 33.808+18 35 02.76         19.28GVEC194I52
     K24C06R KC2024 02 15.47289209 39 32.414+18 34 36.26         19.36GVEC194I52
     K24C06R KC2024 02 15.47421009 39 30.949+18 34 07.75         19.81GVEC194I52
     K24C06R KC2024 02 15.47552809 39 29.516+18 33 39.92         19.61GVEC194I52
     K24C06R KB2024 02 15.84533 09 35 17.13 +16 54 26.3          19.6 GXEC194M45
     K24C06R KB2024 02 15.85129 09 35 12.86 +16 53 13.4          19.7 GXEC194M45
     K24C06R KB2024 02 15.85713 09 35 08.65 +16 52 01.2          19.9 GXEC194M45
     K24C06R KC2024 02 15.88622209 34 51.85 +16 46 08.7          19.9 GVEC194L01
     K24C06R KC2024 02 15.88770409 34 50.83 +16 45 51.2          20.1 GVEC194L01
     K24C06R KC2024 02 15.88918609 34 49.82 +16 45 33.8          19.7 GVEC194L01
     K24C06R KC2024 02 15.89067109 34 48.78 +16 45 16.2          19.7 GVEC194L01
     K24C06R KC2024 02 15.89215609 34 47.76 +16 44 59.1          19.9 GVEC194L01
     K24C06R 0B2024 02 15.90052 09 34 42.905+16 50 37.36         20.1 VZEC194M49
     K24C06R 0B2024 02 15.90626 09 34 38.779+16 49 29.32         20.1 VZEC194M49
     K24C06R 0B2024 02 15.91199 09 34 34.630+16 48 21.49         19.8 VZEC194M49

Observer details:
703 Catalina Sky Survey.  Observer H. Groeller.  Measurers T. Beuden, V. F.
    Carvajal, D. Fay, J. B. Fazekas, D. C. Fuls, A. R. Gibbs, A. D. Grauer, H.
    Groeller, J. K. Hogan, R. A. Kowalski, S. M. Larson, G. J. Leonard, D.
    Rankin, R. L. Seaman, F. C. Shelly, K. W. Wierzchos.  0.68-m Schmidt + 10K
    CCD.
I52 Steward Observatory, Mt. Lemmon Station.  Observer J. B. Fazekas.
    Measurers E. C. Beshore, D. Fay, J. B. Fazekas, D. C. Fuls, A. R. Gibbs,
    A. D. Grauer, H. Groeller, J. K. Hogan, R. A. Kowalski, S. M. Larson, G.
    J. Leonard, D. Rankin, R. L. Seaman, F. C. Shelly, K. W. Wierzchos.  1.0-m
    prime focus + CCD.
L01 Visnjan Observatory, Tican.  Observer K. Korlevic.  1.0-m f/2.9 reflector
    + CCD.
M45 Starhopper Observatory, Sfantu Gheorghe.  Observer F. Ursache.  0.41-m
    f/7.5 reflector + CMO.
M49 IAS Remote Observatory, Hakos.  Observers D. Husar, M. Junius.  Measurer
    D. Husar.  0.25-m f/4.5 reflector + CMO.

Orbital elements:
2024 CR6                                                 Earth MOID = 0.0027 AU
Epoch 2024 Mar. 31.0 TT = JDT 2460400.5                 Veres                   
M  43.18070              (2000.0)            P               Q                  
n   0.46129988     Peri.   76.72060     +0.72199814     -0.69096378             
a   1.6588756      Node   326.96433     +0.60659069     +0.65707858             
e   0.6950037      Incl.    3.77421     +0.33281590     +0.30135825             
P   2.14           H   27.95          G   0.15           U   8                  
Residuals in seconds of arc
240215 703  1.5-  0.4-    240215 I52  0.1-  0.2-    240215 L01  0.1-  0.1+
240215 703  0.2+  0.7-    240215 I52  0.2+  0.9+    240215 L01  0.2+  0.2+
240215 703  1.1+  0.6+    240215 I52  0.3-  0.1+    240215 L01  0.0   0.1+
240215 703  0.3+  0.3+    240215 I52  0.5-  0.1-    240215 L01  0.2+  0.5+
240215 I52  0.0   0.1-    240215 M45  0.1-  0.3-    240215 M49  0.2-  0.2-
240215 I52  0.1-  0.0     240215 M45  0.3+  0.2+    240215 M49  0.3+  0.2-
240215 I52  0.0   0.1-    240215 M45  0.1+  0.5-    240215 M49  0.0   0.4-
240215 I52  0.2-  0.0     240215 L01  0.3-  0.1+

Ephemeris:
2024 CR6                 a,e,i = 1.66, 0.70, 4                   q = 0.5060
Date    TT    R. A. (2000) Decl.     Delta      r    Elong.  Phase     V
2024 01 16    21 11 30.6 -12 03 56   0.4090  0.6235    22.0   143.8    32.4
...
2024 01 31    21 16 35.7 -10 27 53   0.1821  0.8061     9.5   168.3
...
2024 02 08    21 13 56.9 -09 18 36   0.07758 0.9093     6.4   173.0
...
2024 02 14    18 51 17.9 +37 20 16   0.0032640.9860    65.4   114.5    19.9
2024 02 15    09 52 19.4 +22 40 52   0.01129 0.9987   170.3     9.5    18.8
2024 02 16    09 33 41.9 +16 27 56   0.02371 1.0113   173.7     6.2    20.3
...
2024 02 22    09 22 04.5 +12 09 26   0.09970 1.0861   166.2    12.5    23.9
...
2024 03 01    09 21 37.0 +11 26 56   0.2039  1.1827   158.3    18.0    25.8
...
2024 03 16    09 26 39.6 +10 54 51   0.4137  1.3539   144.8    25.1    27.8

M. P. C. Staff               (C) Copyright 2024 MPC           M.P.E.C. 2024-C194





More information about the Iaude mailing list